Klamath Falls, OR

9:35 PM PDT on May 26, 2017 (GMT -0700)
Klamath Falls International

Weather History for KLMT - January, 2013

Change the Weather History Date:

Thursday, January 31, 2013

  Actual Average Record
Temperature  
Mean Temperature 34 °F 32 °F  
Max Temperature 46 °F 42 °F 59 °F (2003)
Min Temperature 22 °F 22 °F -14 °F (1950)
Degree Days  
Heating Degree Days 31 33  
Month to date heating degree days 1199 1080  
Since 1 July heating degree days 3797 3980  
Cooling Degree Days 0 0  
Month to date cooling degree days 0 0  
Year to date cooling degree days 0 0  
Moisture  
Dew Point 26 °F    
Average Humidity 92    
Maximum Humidity 100    
Minimum Humidity 65    
Precipitation  
Precipitation 0.00 in 0.03 in 0.53 in (1963)
Month to date precipitation 0.44 1.85  
Year to date precipitation 0.44 1.85  
Sea Level Pressure  
Sea Level Pressure 30.36 in    
Wind  
Wind Speed 1 mph (North)    
Max Wind Speed 8 mph    
Max Gust Speed 8 mph    
Visibility 5 miles    
Events Fog    
T = Trace of Precipitation, MM = Missing Value Source: NWS Daily Summary

Daily Weather History Graph

Daily Weather History Graph

Search for Another Location

Airport or City:

Trip Planner

Search our weather history database for the weather conditions in past years. The results will help you decide how hot, cold, wet, or windy it might be!

Date:

Astronomy

Jan. 31, 2013 Rise Set
Actual Time 7:20 AM PST 5:20 PM PST
Civil Twilight 6:50 AM PST 5:50 PM PST
Nautical Twilight 6:17 AM PST 6:23 PM PST
Astronomical Twilight 5:44 AM PST 6:56 PM PST
Moon 10:35 PM PST (1/31) 9:16 AM PST (1/31)
Length of Visible Light 10h 59m
Length of Day
9h 59m
Waning Gibbous, 79% of the Moon is Illuminated
Jan 31
Waning Gibbous
Feb 3
Last Quarter
Feb 9
New
Feb 17
First Quarter
Feb 25
Full

Hourly Weather History & Observations

Time (PST) Temp. Windchill Dew Point Humidity Pressure Visibility Wind Dir Wind Speed Gust Speed Precip Events Conditions
12:53 AM 27.0 °F - 25.0 °F 92% 30.42 in 9.0 mi Calm Calm - N/A   Clear
1:53 AM 27.0 °F - 25.0 °F 92% 30.40 in 10.0 mi Calm Calm - N/A   Clear
2:53 AM 25.0 °F - 24.1 °F 96% 30.40 in 10.0 mi Calm Calm - N/A   Clear
3:53 AM 26.1 °F - 24.1 °F 92% 30.39 in 7.0 mi Calm Calm - N/A   Clear
4:53 AM 26.1 °F 21.9 °F 24.1 °F 92% 30.38 in 10.0 mi East 3.5 mph - N/A   Clear
5:53 AM 25.0 °F - 23.0 °F 92% 30.39 in 8.0 mi Calm Calm - N/A   Clear
6:00 AM 24.8 °F - 23.0 °F 93% 30.33 in 7.0 mi Calm Calm - N/A Fog Patches of Fog
6:31 AM 23.0 °F - 21.2 °F 93% 30.33 in 1.0 mi Calm Calm - N/A   Mostly Cloudy
6:34 AM 23.0 °F 18.4 °F 21.2 °F 93% 30.34 in 0.5 mi North 3.5 mph - N/A Fog Light Freezing Fog
6:53 AM 23.0 °F 17.0 °F 21.9 °F 96% 30.41 in 0.2 mi NNW 4.6 mph - N/A Fog Light Freezing Fog
7:24 AM 23.0 °F - 21.2 °F 93% 30.33 in 0.2 mi Calm Calm - N/A Fog Light Freezing Fog
7:34 AM 23.0 °F - 21.2 °F 93% 30.33 in 0.2 mi Calm Calm - N/A Fog Light Freezing Fog
7:53 AM 24.1 °F 19.7 °F 23.0 °F 96% 30.42 in 0.2 mi North 3.5 mph - N/A Fog Light Freezing Fog
8:53 AM 24.1 °F - 23.0 °F 96% 30.43 in 0.2 mi Calm Calm - N/A Fog Light Freezing Fog
9:30 AM 26.6 °F 21.2 °F 24.8 °F 93% 30.35 in 0.2 mi NW 4.6 mph - N/A Fog Light Freezing Fog
9:53 AM 26.1 °F - 26.1 °F 100% 30.43 in 0.2 mi Calm Calm - N/A Fog Light Freezing Fog
10:15 AM 26.6 °F - 26.6 °F 100% 30.36 in 0.2 mi Calm Calm - N/A Fog Light Freezing Fog
10:53 AM 28.0 °F - 28.0 °F 100% 30.43 in 0.2 mi Calm Calm - N/A Fog Light Freezing Fog
11:36 AM 30.2 °F - 30.2 °F 100% 30.33 in 0.2 mi Calm Calm - N/A Fog Light Freezing Fog
11:53 AM 32.0 °F - 30.9 °F 96% 30.38 in 1.2 mi Calm Calm - N/A   Mostly Cloudy
12:01 PM 32.0 °F - 30.2 °F 93% 30.32 in 3.0 mi Calm Calm - N/A   Mostly Cloudy
12:53 PM 36.0 °F - 34.0 °F 93% 30.35 in 10.0 mi Calm Calm - N/A   Scattered Clouds
1:53 PM 39.9 °F - 33.1 °F 77% 30.32 in 10.0 mi Calm Calm - N/A   Partly Cloudy
2:53 PM 44.1 °F - 34.0 °F 68% 30.30 in 10.0 mi Calm Calm - N/A   Partly Cloudy
4:53 PM 37.9 °F 32.7 °F 32.0 °F 79% 30.32 in 10.0 mi NNW 6.9 mph - N/A   Partly Cloudy
5:53 PM 34.0 °F 29.8 °F 30.0 °F 85% 30.33 in 10.0 mi NNW 4.6 mph - N/A   Partly Cloudy
6:53 PM 32.0 °F - 28.9 °F 88% 30.35 in 7.0 mi Calm Calm - N/A   Partly Cloudy
7:53 PM 30.0 °F - 28.0 °F 92% 30.34 in 7.0 mi Calm Calm - N/A   Clear
8:53 PM 28.0 °F - 27.0 °F 96% 30.36 in 7.0 mi Calm Calm - N/A   Clear
10:53 PM 28.0 °F - 26.1 °F 92% 30.35 in 10.0 mi Calm Calm - N/A   Clear
11:53 PM 28.9 °F - 27.0 °F 92% 30.35 in 10.0 mi Calm Calm - N/A   Clear